This is the latest recevied weather packets stored in our database for station/object XE2KK-10. If no packets are shown the sender has not sent any weather packets the latest 10 day(s).
| Time | Temp. | Humidity | Pressure | Rain* | Wind** | Luminosity | Snow |
|---|---|---|---|---|---|---|---|
| 1778169253 | 26.67° C | 70% | 1014.6 hPa | 0 mm | - | 581 W/m² | - |
| 1778168952 | 26.67° C | 70% | 1014.7 hPa | 0 mm | - | 544 W/m² | - |
| 1778168652 | 27.22° C | 69% | 1014.3 hPa | 0 mm | - | 622 W/m² | - |
| 1778168353 | 26.67° C | 71% | 1014.3 hPa | 0 mm | - | 615 W/m² | - |
| 1778168053 | 26.67° C | 71% | 1014.5 hPa | 0 mm | - | 493 W/m² | - |
| 1778167753 | 26.67° C | 70% | 1014.2 hPa | 0 mm | - | 363 W/m² | - |
| 1778167453 | 26.67° C | 71% | 1014.4 hPa | 0 mm | - | 585 W/m² | - |
| 1778167152 | 26.67° C | 72% | 1014.2 hPa | 0 mm | - | 523 W/m² | - |
| 1778166852 | 26.11° C | 72% | 1014.2 hPa | 0 mm | - | 509 W/m² | - |
| 1778166553 | 26.11° C | 72% | 1014.2 hPa | 0 mm | - | 467 W/m² | - |
| 1778166252 | 25.56° C | 73% | 1014.1 hPa | 0 mm | - | 467 W/m² | - |
| 1778165953 | 25.56° C | 74% | 1014.5 hPa | 0 mm | - | 455 W/m² | - |
| 1778165653 | 26.11° C | 74% | 1014.4 hPa | 0 mm | - | 429 W/m² | - |
| 1778165352 | 25.56° C | 75% | 1014.3 hPa | 0 mm | - | 409 W/m² | - |
| 1778165052 | 25.56° C | 75% | 1014.3 hPa | 0 mm | - | 398 W/m² | - |
| 1778164752 | 25° C | 78% | 1014.4 hPa | 0 mm | - | 368 W/m² | - |
| 1778164453 | 24.44° C | 78% | 1014.1 hPa | 0 mm | - | 353 W/m² | - |
| 1778164153 | 24.44° C | 79% | 1014.4 hPa | 0 mm | - | 322 W/m² | - |
| 1778163853 | 24.44° C | 78% | 1014.5 hPa | 0 mm | - | 304 W/m² | - |
| 1778163552 | 24.44° C | 79% | 1014.2 hPa | 0 mm | - | 294 W/m² | - |
| 1778163252 | 24.44° C | 80% | 1014.5 hPa | 0 mm | - | 270 W/m² | - |
| 1778162953 | 24.44° C | 80% | 1014.5 hPa | 0 mm | - | 252 W/m² | - |
| 1778162653 | 24.44° C | 81% | 1014.5 hPa | 0 mm | - | 226 W/m² | - |
| 1778162353 | 24.44° C | 83% | 1014.4 hPa | 0 mm | - | 210 W/m² | - |
| 1778162053 | 24.44° C | 83% | 1014.3 hPa | 0 mm | - | 194 W/m² | - |
* Rain latest hour (hover to see other rain measurements)
** Current wind speed in m/s (hover to see current wind gust speed)